Location: G�yn�k
(36.6721°N, 30.5542°E)
Time: 08:14:38
(UTC+00:00)

Meteor 2-3 Rocket - Pass Details

Date: 07 June 2020
Orbit: 844 x 883 km, 81.2° (Epoch: 06 July)

Event Time Altitude Azimuth Distance (km) Brightness Sun altitude
Exits shadow 01:27:21 - 187° (S) 2,685 5.9 -12.5°
Reaches altitude 10° 01:27:55 10° 187° (S) 2,463 5.7 -12.5°
Maximum altitude 01:33:31 89° 96° (E) 850 3.7 -11.6°
Drops below altitude 10° 01:39:07 10° 9° (N) 2,470 6.9 -10.7°
Sets 01:41:32 0° 9° (N) 3,409 7.7 -10.4°
